Overview Statistics Trail Chart Weather Telemetry Raw packets
 

This is the latest recevied weather packets stored in our database for station/object OK2ZAW-18. If no packets are shown the sender has not sent any weather packets the latest 10 day(s).

<< 1 2 >>
Time Temp. Humidity Pressure Rain* Wind** Luminosity Snow
1777748784 25° C 32% 949.1 hPa - - - -
1777746983 25.56° C 31% 949.1 hPa - - - -
1777745195 26.11° C 30% - - - - -
1777745183 26.11° C 30% 948.8 hPa - - - -
1777744289 26.11° C 29% 948.8 hPa - - - -
1777743395 26.67° C 29% 948.9 hPa - - - -
1777743383 26.67° C 29% 948.9 hPa - - - -
1777740702 27.22° C 27% 949.1 hPa - - - -
1777740690 27.22° C 27% 949.1 hPa - - - -
1777739795 27.78° C 26% 949.2 hPa - - - -
1777739783 27.78° C 26% 949.2 hPa - - - -
1777738883 28.33° C 25% 949.5 hPa - - - -
1777737981 29.44° C 24% 949.6 hPa - - - -
1777737081 28.33° C 25% 949.8 hPa - - - -
1777736181 28.33° C 24% 950 hPa - - - -
1777734381 28.89° C 22% 950.3 hPa - - - -
1777733481 28.89° C 23% 950.3 hPa - - - -
1777732580 27.78° C 23% 950.4 hPa - - - -
1777730780 27.78° C 24% 950.7 hPa - - - -
1777727190 26.11° C 27% 951.3 hPa - - - -
1777727178 26.11° C 27% 951.3 hPa - - - -
1777726278 26.11° C 27% 951.5 hPa - - - -
1777725378 25.56° C 27% 951.7 hPa - - - -
1777723590 25.56° C 27% 952 hPa - - - -
1777723590 25.56° C 27% 952 hPa - - - -

* Rain since midnight (hover to see other rain measurements)
** Current wind speed in m/s (hover to see current wind gust speed)